LFML

Marseille/Provence

Airport
ICAO code
LFML
Summary
ICAO Region
EUR
ICAO Territory
Location

Marseille, Provence-Alpes-Cote d' Azur,

Coordinates
43° 26' 5" N , 5° 12' 60" E
KCC
Metar
LFML 211430Z AUTO 15020G30KT 9999 SCT017 BKN023 26/22 Q1004 NOSIG

Description

International airport serving Marseille.

Climatology

Dry-summer subtropical ”Mediterranean" climate (Köppen climate classification Csa) - characterized by hot, dry summers and mild winters. During the summer, subtropical high pressure cells dominate, making rainfall unlikely except for the occasional thunderstorm. In the winter, periodic storms bring rain.

Runways

Designator Length Width Surface Rops
13R/31L 2370 45 ASP Yes/Yes
14R/32L 2370 45 ASP Yes/Yes
13L/31R 3500 45 ASP Yes/Yes
14L/32R 3500 45 ASP Yes/Yes

Airport map

Aerial View

SKYbrary Partners:

Safety knowledge contributed by: